TimeCDT,TemperatureF,Dew PointF,Humidity,Sea Level PressureIn,VisibilityMPH,Wind Direction,Wind SpeedMPH,Gust SpeedMPH,PrecipitationIn,Events,Conditions,WindDirDegrees,DateUTC
12:33 AM,66.2,64.4,94,29.97,1.8,Calm,Calm,-,N/A,,Clear,0,2013-09-13 05:33:00
12:40 AM,66.2,64.4,94,29.97,3.0,Calm,Calm,-,N/A,,Clear,0,2013-09-13 05:40:00
12:53 AM,66.9,64.9,93,29.95,10.0,Calm,Calm,-,N/A,,Clear,0,2013-09-13 05:53:00
1:53 AM,68.0,63.0,84,29.96,10.0,Calm,Calm,-,N/A,,Clear,0,2013-09-13 06:53:00
2:53 AM,66.9,61.0,81,29.96,10.0,NW,3.5,-,N/A,,Clear,320,2013-09-13 07:53:00
3:53 AM,64.9,60.1,84,29.96,10.0,North,3.5,-,N/A,,Clear,350,2013-09-13 08:53:00
4:53 AM,64.0,59.0,84,29.97,10.0,North,3.5,-,N/A,,Clear,360,2013-09-13 09:53:00
5:53 AM,62.1,57.0,84,29.99,10.0,Variable,3.5,-,N/A,,Clear,0,2013-09-13 10:53:00
6:53 AM,62.1,57.0,84,30.01,10.0,North,4.6,-,N/A,,Clear,10,2013-09-13 11:53:00
7:53 AM,64.0,57.0,78,30.03,10.0,NNE,5.8,-,N/A,,Clear,20,2013-09-13 12:53:00
8:53 AM,66.0,55.0,68,30.03,10.0,NE,12.7,19.6,N/A,,Clear,40,2013-09-13 13:53:00
9:53 AM,69.1,54.0,58,30.04,10.0,NE,13.8,-,N/A,,Clear,50,2013-09-13 14:53:00
10:53 AM,70.0,52.0,53,30.05,10.0,NNE,11.5,18.4,N/A,,Clear,30,2013-09-13 15:53:00
11:53 AM,72.0,53.1,51,30.04,10.0,NE,9.2,-,N/A,,Partly Cloudy,40,2013-09-13 16:53:00
12:53 PM,72.0,52.0,49,30.02,10.0,North,6.9,-,N/A,,Scattered Clouds,360,2013-09-13 17:53:00
1:53 PM,71.1,52.0,51,30.01,10.0,North,8.1,16.1,N/A,,Scattered Clouds,360,2013-09-13 18:53:00
2:53 PM,71.1,51.1,49,30.00,10.0,Variable,6.9,-,N/A,,Mostly Cloudy,0,2013-09-13 19:53:00
3:53 PM,72.0,48.9,44,30.00,10.0,North,9.2,-,N/A,,Partly Cloudy,350,2013-09-13 20:53:00
4:53 PM,73.0,48.0,41,30.00,10.0,NNE,10.4,16.1,N/A,,Scattered Clouds,20,2013-09-13 21:53:00
5:53 PM,70.0,46.9,44,30.01,10.0,North,6.9,-,N/A,,Clear,350,2013-09-13 22:53:00
6:53 PM,66.9,48.0,51,30.01,10.0,NNE,4.6,-,N/A,,Clear,20,2013-09-13 23:53:00
7:53 PM,63.0,48.9,60,30.03,10.0,North,4.6,-,N/A,,Clear,10,2013-09-14 00:53:00
8:53 PM,62.1,48.0,60,30.04,10.0,NNE,5.8,-,N/A,,Clear,20,2013-09-14 01:53:00
9:53 PM,60.1,48.0,64,30.05,10.0,North,3.5,-,N/A,,Clear,360,2013-09-14 02:53:00
10:53 PM,55.0,48.9,80,30.07,10.0,NE,3.5,-,N/A,,Clear,40,2013-09-14 03:53:00
11:53 PM,54.0,48.0,80,30.07,10.0,NE,4.6,-,N/A,,Clear,50,2013-09-14 04:53:00